TimeEDT,TemperatureF,Dew PointF,Humidity,Sea Level PressureIn,VisibilityMPH,Wind Direction,Wind SpeedMPH,Gust SpeedMPH,PrecipitationIn,Events,Conditions,WindDirDegrees,DateUTC
12:51 AM,39.9,37.0,89,30.29,10.0,Calm,Calm,-,N/A,,Clear,0,2013-05-18 04:51:00
1:51 AM,39.0,36.0,89,30.29,10.0,Calm,Calm,-,N/A,,Clear,0,2013-05-18 05:51:00
2:51 AM,37.0,35.1,93,30.29,10.0,Calm,Calm,-,N/A,,Clear,0,2013-05-18 06:51:00
3:51 AM,36.0,34.0,93,30.30,10.0,Calm,Calm,-,N/A,,Clear,0,2013-05-18 07:51:00
4:51 AM,36.0,35.1,97,30.31,7.0,Calm,Calm,-,N/A,,Clear,0,2013-05-18 08:51:00
5:10 AM,35.6,33.8,93,30.29,1.8,Calm,Calm,-,N/A,,Partly Cloudy,0,2013-05-18 09:10:00
5:16 AM,35.6,35.6,100,30.29,1.2,Calm,Calm,-,N/A,,Mostly Cloudy,0,2013-05-18 09:16:00
5:20 AM,35.6,33.8,93,30.29,0.8,Calm,Calm,-,N/A,,Mist,0,2013-05-18 09:20:00
5:38 AM,33.8,33.8,100,30.30,1.8,Calm,Calm,-,N/A,,Mostly Cloudy,0,2013-05-18 09:38:00
5:40 AM,33.8,33.8,100,30.30,5.0,Calm,Calm,-,N/A,,Scattered Clouds,0,2013-05-18 09:40:00
5:51 AM,35.1,33.1,92,30.33,9.0,Calm,Calm,-,N/A,,Partly Cloudy,0,2013-05-18 09:51:00
6:51 AM,41.0,39.0,93,30.35,10.0,Calm,Calm,-,N/A,,Clear,0,2013-05-18 10:51:00
7:51 AM,45.0,39.9,82,30.36,10.0,Calm,Calm,-,N/A,,Clear,0,2013-05-18 11:51:00
8:51 AM,52.0,42.1,69,30.36,10.0,Calm,Calm,-,N/A,,Clear,0,2013-05-18 12:51:00
9:51 AM,57.9,41.0,53,30.36,10.0,North,3.5,-,N/A,,Clear,360,2013-05-18 13:51:00
10:51 AM,63.0,39.0,41,30.35,10.0,Variable,3.5,-,N/A,,Clear,0,2013-05-18 14:51:00
11:51 AM,64.9,32.0,29,30.33,10.0,Variable,4.6,16.1,N/A,,Clear,0,2013-05-18 15:51:00
12:51 PM,66.0,27.0,23,30.32,10.0,Variable,6.9,-,N/A,,Partly Cloudy,0,2013-05-18 16:51:00
1:51 PM,68.0,28.0,22,30.30,10.0,NNW,8.1,-,N/A,,Partly Cloudy,340,2013-05-18 17:51:00
2:51 PM,68.0,27.0,21,30.28,10.0,Variable,3.5,17.3,N/A,,Clear,0,2013-05-18 18:51:00
3:51 PM,68.0,28.9,23,30.28,10.0,WNW,6.9,-,N/A,,Clear,300,2013-05-18 19:51:00
4:51 PM,68.0,25.0,20,30.27,10.0,WSW,4.6,-,N/A,,Clear,250,2013-05-18 20:51:00
5:51 PM,68.0,27.0,21,30.27,10.0,Calm,Calm,-,N/A,,Clear,0,2013-05-18 21:51:00
6:51 PM,64.9,30.9,28,30.27,10.0,Calm,Calm,-,N/A,,Partly Cloudy,0,2013-05-18 22:51:00
7:51 PM,60.1,35.1,39,30.28,10.0,Calm,Calm,-,N/A,,Scattered Clouds,0,2013-05-18 23:51:00
8:51 PM,55.0,39.9,57,30.29,10.0,Calm,Calm,-,N/A,,Overcast,0,2013-05-19 00:51:00
9:51 PM,51.1,37.9,61,30.30,10.0,Calm,Calm,-,N/A,,Mostly Cloudy,0,2013-05-19 01:51:00
10:51 PM,48.9,37.9,66,30.30,10.0,SSE,4.6,-,N/A,,Mostly Cloudy,150,2013-05-19 02:51:00
11:51 PM,46.9,37.9,71,30.30,10.0,Calm,Calm,-,N/A,,Overcast,0,2013-05-19 03:51:00